Powrót do katalogu

INTELSAT 21

AktywnyŁącznośćGEO
NORAD 38749·PAYLOAD· XX

Wystrzelony Aug 19, 2012 z Sea Launch Platform

Loading…

TLE

ŚwieżeSource: CelesTrak SupGP

Epoka: Sep 14, 2026, 00:00 UTC

1 38749C 12045A   26257.00000000 -.00003068  00000+0  00000+0 0  2578
2 38749   0.0004 190.1962 0002394 358.1153 106.6797  1.00272224    16

Śledź INTELSAT 21 w czasie rzeczywistym z AllMySat

Download on the App Store